[[{"header":{"parameterUnit":"m.s-1","parameterCategory":1,"la1":30.2992,"la2":30.254,"lo1":-89.0895,"lo2":-89.0443,"dy":0.0025,"dx":0.0025,"nx":19,"ny":19,"refTime":"2026-04-12T03:00:00:Z","depth":0,"parameterNumber":2,"parameterNumberName":"U-component_of_WINDS"},"data":[0,0,0,-1.0115,-1.0115,-1.0105,-1.0104,-1.0104,-1.0104,0,0,0,0,0,0,0,0,0,0,0,-1.0125,-1.0125,-1.0115,-1.0115,-1.0105,-1.0104,-1.0104,-1.0104,0,0,0,0,0,0,0,0,0,0,0,-1.0125,-1.0125,-1.0126,-1.0115,-1.0105,-1.0104,-1.0104,-1.0107,0,0,0,0,0,0,0,0,0,0,-1.0116,-1.0131,-1.0125,-1.0126,-1.0115,-1.0105,-1.0104,-1.0107,-1.0107,-1.0114,0,-1.0121,0,-1.0113,-1.0105,-1.0105,0,0,0,-1.011,-1.0131,-1.0122,-1.0126,-1.0115,-1.0105,-1.0108,-1.0107,-1.0107,-1.0114,-1.0121,-1.012,-1.0113,-1.0105,-1.0105,-1.0159,-1.016,0,0,-1.0111,-1.0127,-1.0122,-1.0122,-1.0124,-1.0108,-1.0108,-1.0107,-1.0116,-1.0121,-1.012,-1.0113,-1.0105,-1.0105,-1.0159,-1.0159,0,0,0,-1.0116,-1.0128,-1.0118,-1.0123,-1.012,-1.0108,-1.0107,-1.0116,-1.0111,-1.012,-1.0113,-1.0105,-1.0105,-1.0158,-1.0159,-1.0199,0,0,0,-1.0116,-1.0131,-1.0119,-1.0129,-1.012,-1.0118,-1.0117,-1.0112,-1.0111,-1.0113,-1.0105,-1.0105,-1.0157,-1.0158,-1.0197,-1.0216,0,0,0,-1.0123,-1.0131,-1.0132,-1.013,-1.0126,-1.0117,-1.0112,-1.0111,-1.0107,-1.0105,-1.0105,-1.0157,-1.0158,-1.0195,-1.0212,-1.0236,0,0,0,-1.0137,-1.0168,-1.0133,-1.0165,-1.0126,-1.0142,-1.0112,-1.0123,-1.0127,-1.0105,-1.0158,-1.0159,-1.0194,-1.021,-1.0234,-1.0259,-1.0271,0,0,-1.0185,-1.0174,-1.0192,-1.016,-1.0187,-1.0142,-1.0175,-1.0162,-1.0147,-1.0156,-1.0157,-1.0198,-1.0212,-1.0235,-1.0329,-1.0339,0,0,0,-1.0213,-1.0226,-1.0229,-1.0233,-1.0224,-1.0219,-1.0199,-1.0195,-1.0202,-1.0155,-1.0211,-1.0219,-1.0232,-1.0244,-1.0252,-1.0263,-1.0164,-1.0164,-1.0164,-1.0306,-1.0285,-1.0313,-1.0291,-1.0295,-1.0276,-1.0277,-1.0268,-1.0246,-1.026,-1.0262,-1.0322,-1.0336,-1.0342,-1.0353,-1.0273,-1.0273,-1.0273,-1.0274,-1.0376,-1.0392,-1.0361,-1.0378,-1.0356,-1.037,-1.0353,-1.0337,-1.0347,-1.0318,-1.0328,-1.0299,-1.0353,-1.0362,-1.0276,-1.0276,-1.0276,-1.0275,-1.0275,-1.0436,-1.044,-1.0433,-1.0437,-1.0443,-1.042,-1.0432,-1.0411,-1.0392,-1.0402,-1.0403,-1.0403,-1.04,-1.0404,-1.0404,-1.0404,-1.0404,-1.0405,-1.0405,-1.05,-1.0492,-1.0504,-1.0498,-1.0498,-1.0496,-1.0477,-1.0477,-1.0472,-1.0456,-1.0456,-1.0433,-1.0361,-1.0345,-1.0408,-1.0407,-1.0407,-1.0407,-1.0406,-1.0581,-1.0559,-1.0578,-1.0579,-1.057,-1.0578,-1.0551,-1.0553,-1.055,-1.0557,-1.0532,-1.0482,-1.047,-1.0463,-1.0449,-1.0536,-1.0536,-1.0536,-1.0536,-1.0632,-1.0623,-1.0639,-1.0641,-1.064,-1.0618,-1.0642,-1.0628,-1.061,-1.0607,-1.0592,-1.0571,-1.0565,-1.0556,-1.0548,-1.0534,-1.0641,-1.0641,-1.0641,-1.0681,-1.0672,-1.0695,-1.0677,-1.0669,-1.0663,-1.0685,-1.069,-1.0665,-1.0645,-1.0605,-1.0601,-1.0567,-1.0557,-1.0536,-1.0524,-1.0499,0,0]},{"header":{"parameterUnit":"m.s-1","parameterCategory":1,"la1":30.2992,"la2":30.254,"lo1":-89.0895,"lo2":-89.0443,"dy":0.0025,"dx":0.0025,"nx":19,"ny":19,"refTime":"2026-04-12T03:00:00:Z","depth":0,"parameterNumber":3,"parameterNumberName":"V-component_of_WINDS"},"data":[0,0,0,2.5258,2.5259,2.5276,2.5276,2.5307,2.5308,0,0,0,0,0,0,0,0,0,0,0,2.5259,2.526,2.5258,2.5259,2.5276,2.5276,2.5307,2.5308,0,0,0,0,0,0,0,0,0,0,0,2.5259,2.5259,2.526,2.5259,2.5276,2.5276,2.5307,2.5291,0,0,0,0,0,0,0,0,0,0,2.5272,2.5279,2.5259,2.526,2.5259,2.5276,2.5276,2.529,2.5292,2.5304,0,2.5316,0,2.5312,2.531,2.5311,0,0,0,2.5254,2.5277,2.5277,2.526,2.5259,2.5276,2.5267,2.5291,2.5293,2.5306,2.5316,2.5317,2.5313,2.5311,2.5311,2.5394,2.5395,0,0,2.5253,2.5265,2.5275,2.5279,2.5277,2.5267,2.5268,2.5292,2.5304,2.5316,2.5318,2.5313,2.5311,2.5311,2.5393,2.5394,0,0,0,2.5254,2.5265,2.5263,2.5278,2.528,2.5267,2.5268,2.5302,2.5301,2.5318,2.5314,2.5311,2.5312,2.5393,2.5394,2.5435,0,0,0,2.5253,2.5265,2.5263,2.5271,2.528,2.5292,2.5279,2.5299,2.5302,2.5314,2.5311,2.5312,2.5392,2.5393,2.5432,2.5452,0,0,0,2.5256,2.5265,2.527,2.5271,2.5279,2.5291,2.5291,2.53,2.5299,2.5311,2.5312,2.5392,2.5393,2.543,2.5448,2.5478,0,0,0,2.5263,2.5306,2.5271,2.5318,2.5279,2.5316,2.529,2.5317,2.5332,2.5311,2.5392,2.5394,2.5429,2.5446,2.5475,2.5504,2.5518,0,0,2.5324,2.5314,2.5341,2.5309,2.5356,2.5313,2.5365,2.5367,2.5357,2.5382,2.5384,2.5433,2.5448,2.5477,2.5588,2.5599,0,0,0,2.5364,2.5384,2.5393,2.5408,2.541,2.5414,2.5407,2.5407,2.5428,2.5373,2.5451,2.546,2.5476,2.549,2.5499,2.5512,2.54,2.54,2.54,2.5468,2.5453,2.5497,2.5484,2.5498,2.549,2.55,2.55,2.548,2.5499,2.5506,2.5575,2.5592,2.5598,2.5612,2.5521,2.5521,2.5521,2.5521,2.5557,2.5582,2.5555,2.5588,2.5572,2.5598,2.5592,2.5578,2.56,2.5569,2.5582,2.5549,2.561,2.5622,2.5524,2.5523,2.5523,2.5523,2.5523,2.5624,2.5633,2.5633,2.5653,2.5669,2.5654,2.5677,2.5662,2.5647,2.5661,2.5667,2.5666,2.5664,2.5665,2.5665,2.5665,2.5666,2.5666,2.5666,2.5693,2.5692,2.5713,2.572,2.5727,2.5734,2.5726,2.5733,2.5736,2.5723,2.5723,2.5702,2.5619,2.5599,2.5669,2.5669,2.5668,2.5668,2.5668,2.5789,2.5765,2.5798,2.5805,2.5811,2.5828,2.5808,2.5823,2.5826,2.5838,2.5814,2.5755,2.5743,2.5736,2.5719,2.5817,2.5817,2.5817,2.5817,2.5845,2.5838,2.5868,2.5881,2.5891,2.5876,2.5914,2.5908,2.5898,2.5899,2.5883,2.5859,2.5852,2.5845,2.5835,2.5819,2.594,2.594,2.594,2.5903,2.5896,2.5931,2.5922,2.5925,2.5929,2.5963,2.5979,2.5963,2.5944,2.59,2.5895,2.5856,2.5844,2.5825,2.581,2.578,0,0]}]]